Tracking 17138 objects as of 3-July-2015
HD Live streaming from Space Station

COSMOS 482 DESCENT CRAFT

Track COSMOS 482 DESCENT CRAFT now!
10-day predictions
COSMOS 482 DESCENT CRAFT is classified as:


NORAD ID: 6073
Int'l Code: 1972-023E
Perigee: 211.3 km
Apogee: 2,935.5 km
Inclination: 52.1 °
Period: 117.4 minutes
Semi major axis: 7944 km
RCS: 0.7153 m2 (medium)
Launch date: March 31, 1972
Source: Commonwealth of Independent States (former USSR) (CIS)
Your satellite tracking list
Your tracking list is empty





NASA's NSSDC Master Catalog

Two Line Element Set (TLE):
1 06073U 72023E   15183.88185242  .00021889  53092-5  12015-3 0  9990
2 06073 052.0639 163.4492 1714593 129.2985 328.6619 12.26060536271880

Source of the keplerian elements: AFSPC

N2YO: 173